Location: Unspecified
(43.8044°N, 11.0278°E)
Time: 05:20:59
(UTC+02:00)

Cosmos 2058 - Visible Passes

Search period start: 25 June 2016 00:00
Search period end: 05 July 2016 00:00
Orbit: 563 x 587 km, 82.5° (Epoch: 24 June)

Date Brightness Start Highest point End Pass type
(mag) Time Alt. Az. Time Alt. Az. Time Alt. Az.
25 Jun 3.3 22:18:06 14° SSE 22:21:19 43° E 22:25:13 10° NNE visible
25 Jun 5.5 23:55:59 10° WSW 23:58:31 16° WNW 00:01:04 10° NNW visible
26 Jun 3.0 22:21:12 12° S 22:24:55 58° E 22:28:59 10° NNE visible
27 Jun 5.7 00:00:38 10° W 00:02:18 12° WNW 00:03:58 10° NW visible
27 Jun 2.8 22:24:28 10° S 22:28:34 80° E 22:32:40 10° N visible
28 Jun 3.0 22:28:07 10° SSW 22:32:12 75° W 22:36:19 10° N visible
29 Jun 3.6 22:31:51 10° SSW 22:35:52 55° W 22:39:55 10° N visible
30 Jun 4.2 22:35:41 10° SSW 22:39:33 40° WNW 22:43:27 10° N visible
01 Jul 4.7 22:39:37 10° SW 22:43:16 30° WNW 22:46:56 10° NNW visible
02 Jul 5.2 22:43:41 10° SW 22:46:59 23° WNW 22:50:19 10° NNW visible
03 Jul 5.6 22:47:53 10° WSW 22:50:44 18° WNW 22:53:36 10° NNW visible
04 Jul 5.8 22:52:20 10° W 22:54:30 14° WNW 22:56:42 10° NW visible
